owner,sensor,date,latitude,longitude,vertical_datum,wind_speed,wind_to_direction,wind_speed_of_gust,qcFlag 
WAVCIS,ioos:station:WAVCIS:CSI15:1,2009-02-01T00:00:00Z,28.8332,-90.8320,10.0,3.093,246.0,,'11111222,11111222,99999999' 
WAVCIS,ioos:station:WAVCIS:CSI15:1,2009-02-01T01:00:00Z,28.8332,-90.8320,10.0,1.409,250.0,,'11111222,11111222,99999999' 
WAVCIS,ioos:station:WAVCIS:CSI15:1,2009-02-01T02:00:00Z,28.8332,-90.8320,10.0,1.652,215.0,,'11111222,11111222,99999999' 
WAVCIS,ioos:station:WAVCIS:CSI15:1,2009-02-01T03:00:00Z,28.8332,-90.8320,10.0,1.504,221.0,,'11111222,11111222,99999999' 
WAVCIS,ioos:station:WAVCIS:CSI15:1,2009-02-01T04:00:00Z,28.8332,-90.8320,10.0,2.897,149.0,,'11111222,11111222,99999999' 
WAVCIS,ioos:station:WAVCIS:CSI15:1,2009-02-01T05:00:00Z,28.8332,-90.8320,10.0,3.411,130.0,,'11111222,11111222,99999999' 
WAVCIS,ioos:station:WAVCIS:CSI15:1,2009-02-01T06:00:00Z,28.8332,-90.8320,10.0,3.034,122.0,,'11111222,11111222,99999999' 
WAVCIS,ioos:station:WAVCIS:CSI15:1,2009-02-01T07:00:00Z,28.8332,-90.8320,10.0,2.671,116.0,,'11111222,11111222,99999999' 
WAVCIS,ioos:station:WAVCIS:CSI15:1,2009-02-01T08:00:00Z,28.8332,-90.8320,10.0,2.71,104.0,,'11111222,11111222,99999999' 
WAVCIS,ioos:station:WAVCIS:CSI15:1,2009-02-01T09:00:00Z,28.8332,-90.8320,10.0,4.551,92.0,,'11111222,11111222,99999999' 
WAVCIS,ioos:station:WAVCIS:CSI15:1,2009-02-01T10:00:00Z,28.8332,-90.8320,10.0,5.654,88.0,,'11111222,11111222,99999999' 
WAVCIS,ioos:station:WAVCIS:CSI15:1,2009-02-01T11:00:00Z,28.8332,-90.8320,10.0,5.965,86.0,,'11111222,11111222,99999999' 
WAVCIS,ioos:station:WAVCIS:CSI15:1,2009-02-01T12:00:00Z,28.8332,-90.8320,10.0,5.261,83.0,,'11111222,11111222,99999999' 
WAVCIS,ioos:station:WAVCIS:CSI15:1,2009-02-01T13:00:00Z,28.8332,-90.8320,10.0,5.441,78.0,,'11111222,11111222,99999999' 
WAVCIS,ioos:station:WAVCIS:CSI15:1,2009-02-01T14:00:00Z,28.8332,-90.8320,10.0,6.99,77.0,,'11111222,11111222,99999999' 
WAVCIS,ioos:station:WAVCIS:CSI15:1,2009-02-01T15:00:00Z,28.8332,-90.8320,10.0,7.39,74.0,,'11111222,11111222,99999999' 
WAVCIS,ioos:station:WAVCIS:CSI15:1,2009-02-01T16:00:00Z,28.8332,-90.8320,10.0,7.72,76.0,,'11111222,11111222,99999999' 
WAVCIS,ioos:station:WAVCIS:CSI15:1,2009-02-01T17:00:00Z,28.8332,-90.8320,10.0,6.862,118.0,,'11111222,11111222,99999999' 
WAVCIS,ioos:station:WAVCIS:CSI15:1,2009-02-01T18:00:00Z,28.8332,-90.8320,10.0,4.703,114.0,,'11111222,11111222,99999999' 
WAVCIS,ioos:station:WAVCIS:CSI15:1,2009-02-01T19:00:00Z,28.8332,-90.8320,10.0,5.752,110.0,,'11111222,11111222,99999999' 
WAVCIS,ioos:station:WAVCIS:CSI15:1,2009-02-01T20:00:00Z,28.8332,-90.8320,10.0,4.806,105.0,,'11111222,11111222,99999999' 
WAVCIS,ioos:station:WAVCIS:CSI15:1,2009-02-01T21:00:00Z,28.8332,-90.8320,10.0,5.224,89.0,,'11111222,11111222,99999999' 
WAVCIS,ioos:station:WAVCIS:CSI15:1,2009-02-01T22:00:00Z,28.8332,-90.8320,10.0,5.665,86.0,,'11111222,11111222,99999999' 
WAVCIS,ioos:station:WAVCIS:CSI15:1,2009-02-01T23:00:00Z,28.8332,-90.8320,10.0,7.08,90.0,,'11111222,11111222,99999999' 
WAVCIS,ioos:station:WAVCIS:CSI15:1,2009-02-02T00:00:00Z,28.8332,-90.8320,10.0,7.11,97.0,,'11111222,11111222,99999999' 
WAVCIS,ioos:station:WAVCIS:CSI15:1,2009-02-02T01:00:00Z,28.8332,-90.8320,10.0,6.401,91.0,,'11111222,11111222,99999999' 
WAVCIS,ioos:station:WAVCIS:CSI15:1,2009-02-02T02:00:00Z,28.8332,-90.8320,10.0,6.971,92.0,,'11111222,11111222,99999999' 
WAVCIS,ioos:station:WAVCIS:CSI15:1,2009-02-02T03:00:00Z,28.8332,-90.8320,10.0,9.3,99.0,,'11111222,11111222,99999999' 
WAVCIS,ioos:station:WAVCIS:CSI15:1,2009-02-02T04:00:00Z,28.8332,-90.8320,10.0,8.46,105.0,,'11111222,11111222,99999999' 
WAVCIS,ioos:station:WAVCIS:CSI15:1,2009-02-02T05:00:00Z,28.8332,-90.8320,10.0,7.99,96.0,,'11111222,11111222,99999999' 
WAVCIS,ioos:station:WAVCIS:CSI15:1,2009-02-02T06:00:00Z,28.8332,-90.8320,10.0,7.16,100.0,,'11111222,11111222,99999999' 
WAVCIS,ioos:station:WAVCIS:CSI15:1,2009-02-02T07:00:00Z,28.8332,-90.8320,10.0,6.826,113.0,,'11111222,11111222,99999999' 
WAVCIS,ioos:station:WAVCIS:CSI15:1,2009-02-02T08:00:00Z,28.8332,-90.8320,10.0,9.08,123.0,,'11111222,11111222,99999999' 
WAVCIS,ioos:station:WAVCIS:CSI15:1,2009-02-02T09:00:00Z,28.8332,-90.8320,10.0,6.18,118.0,,'11111222,11111222,99999999' 
WAVCIS,ioos:station:WAVCIS:CSI15:1,2009-02-02T10:00:00Z,28.8332,-90.8320,10.0,3.667,201.0,,'11111222,11111222,99999999' 
WAVCIS,ioos:station:WAVCIS:CSI15:1,2009-02-02T11:00:00Z,28.8332,-90.8320,10.0,5.119,95.0,,'11111222,11111222,99999999' 
WAVCIS,ioos:station:WAVCIS:CSI15:1,2009-02-02T12:00:00Z,28.8332,-90.8320,10.0,5.088,115.0,,'11111222,11111222,99999999' 
WAVCIS,ioos:station:WAVCIS:CSI15:1,2009-02-02T13:00:00Z,28.8332,-90.8320,10.0,3.687,112.0,,'11111222,11111222,99999999' 
WAVCIS,ioos:station:WAVCIS:CSI15:1,2009-02-02T14:00:00Z,28.8332,-90.8320,10.0,12.17,291.0,,'11111222,11111222,99999999' 
WAVCIS,ioos:station:WAVCIS:CSI15:1,2009-02-02T15:00:00Z,28.8332,-90.8320,10.0,8.58,313.0,,'11111222,11111222,99999999' 
WAVCIS,ioos:station:WAVCIS:CSI15:1,2009-02-02T16:00:00Z,28.8332,-90.8320,10.0,4.604,315.0,,'11111222,11111222,99999999' 
WAVCIS,ioos:station:WAVCIS:CSI15:1,2009-02-02T17:00:00Z,28.8332,-90.8320,10.0,9.98,302.0,,'11111222,11111222,99999999' 
WAVCIS,ioos:station:WAVCIS:CSI15:1,2009-02-02T18:00:00Z,28.8332,-90.8320,10.0,10.08,311.0,,'11111222,11111222,99999999' 
WAVCIS,ioos:station:WAVCIS:CSI15:1,2009-02-02T19:00:00Z,28.8332,-90.8320,10.0,9.33,315.0,,'11111222,11111222,99999999' 
WAVCIS,ioos:station:WAVCIS:CSI15:1,2009-02-02T20:00:00Z,28.8332,-90.8320,10.0,10.8,314.0,,'11111222,11111222,99999999' 
WAVCIS,ioos:station:WAVCIS:CSI15:1,2009-02-02T21:00:00Z,28.8332,-90.8320,10.0,12.31,314.0,,'11111222,11111222,99999999' 
WAVCIS,ioos:station:WAVCIS:CSI15:1,2009-02-02T22:00:00Z,28.8332,-90.8320,10.0,11.24,327.0,,'11111222,11111222,99999999' 
WAVCIS,ioos:station:WAVCIS:CSI15:1,2009-02-02T23:00:00Z,28.8332,-90.8320,10.0,12.85,335.0,,'11111222,11111222,99999999' 
WAVCIS,ioos:station:WAVCIS:CSI15:1,2009-02-03T00:00:00Z,28.8332,-90.8320,10.0,10.91,339.0,,'11111222,11111222,99999999' 
WAVCIS,ioos:station:WAVCIS:CSI15:1,2009-02-03T01:00:00Z,28.8332,-90.8320,10.0,11.86,334.0,,'11111222,11111222,99999999' 
WAVCIS,ioos:station:WAVCIS:CSI15:1,2009-02-03T02:00:00Z,28.8332,-90.8320,10.0,11.25,333.0,,'11111222,11111222,99999999' 
WAVCIS,ioos:station:WAVCIS:CSI15:1,2009-02-03T03:00:00Z,28.8332,-90.8320,10.0,11.56,335.0,,'11111222,11111222,99999999' 
WAVCIS,ioos:station:WAVCIS:CSI15:1,2009-02-03T04:00:00Z,28.8332,-90.8320,10.0,12.86,341.0,,'11111222,11111222,99999999' 
WAVCIS,ioos:station:WAVCIS:CSI15:1,2009-02-03T05:00:00Z,28.8332,-90.8320,10.0,10.19,341.0,,'11111222,11111222,99999999' 
WAVCIS,ioos:station:WAVCIS:CSI15:1,2009-02-03T06:00:00Z,28.8332,-90.8320,10.0,10.81,348.0,,'11111222,11111222,99999999' 
WAVCIS,ioos:station:WAVCIS:CSI15:1,2009-02-03T07:00:00Z,28.8332,-90.8320,10.0,10.07,359.0,,'11111222,11111222,99999999' 
WAVCIS,ioos:station:WAVCIS:CSI15:1,2009-02-03T08:00:00Z,28.8332,-90.8320,10.0,9.31,358.0,,'11111222,11111222,99999999' 
WAVCIS,ioos:station:WAVCIS:CSI15:1,2009-02-03T09:00:00Z,28.8332,-90.8320,10.0,9.02,357.0,,'11111222,11111222,99999999' 
WAVCIS,ioos:station:WAVCIS:CSI15:1,2009-02-03T10:00:00Z,28.8332,-90.8320,10.0,8.14,356.0,,'11111222,11111222,99999999' 
WAVCIS,ioos:station:WAVCIS:CSI15:1,2009-02-03T11:00:00Z,28.8332,-90.8320,10.0,8.57,352.0,,'11111222,11111222,99999999' 
WAVCIS,ioos:station:WAVCIS:CSI15:1,2009-02-03T12:00:00Z,28.8332,-90.8320,10.0,6.499,6.0,,'11111222,11111222,99999999' 
WAVCIS,ioos:station:WAVCIS:CSI15:1,2009-02-03T13:00:00Z,28.8332,-90.8320,10.0,5.713,11.0,,'11111222,11111222,99999999' 
WAVCIS,ioos:station:WAVCIS:CSI15:1,2009-02-03T14:00:00Z,28.8332,-90.8320,10.0,4.182,14.0,,'11111222,11111222,99999999' 
WAVCIS,ioos:station:WAVCIS:CSI15:1,2009-02-03T15:00:00Z,28.8332,-90.8320,10.0,3.31,14.0,,'11111222,11111222,99999999' 
WAVCIS,ioos:station:WAVCIS:CSI15:1,2009-02-03T16:00:00Z,28.8332,-90.8320,10.0,3.487,14.0,,'11111222,11111222,99999999' 
WAVCIS,ioos:station:WAVCIS:CSI15:1,2009-02-03T17:00:00Z,28.8332,-90.8320,10.0,2.7,14.0,,'11111222,11111222,99999999' 
WAVCIS,ioos:station:WAVCIS:CSI15:1,2009-02-03T18:00:00Z,28.8332,-90.8320,10.0,1.181,43.0,,'11111222,11111222,99999999' 
WAVCIS,ioos:station:WAVCIS:CSI15:1,2009-02-03T19:00:00Z,28.8332,-90.8320,10.0,0.827,342.0,,'11111222,11111222,99999999' 
WAVCIS,ioos:station:WAVCIS:CSI15:1,2009-02-03T20:00:00Z,28.8332,-90.8320,10.0,2.09,222.0,,'11111222,11111222,99999999' 
WAVCIS,ioos:station:WAVCIS:CSI15:1,2009-02-03T21:00:00Z,28.8332,-90.8320,10.0,4.408,237.0,,'11111222,11111222,99999999' 
WAVCIS,ioos:station:WAVCIS:CSI15:1,2009-02-03T22:00:00Z,28.8332,-90.8320,10.0,6.444,252.0,,'11111222,11111222,99999999' 
WAVCIS,ioos:station:WAVCIS:CSI15:1,2009-02-03T23:00:00Z,28.8332,-90.8320,10.0,7.21,247.0,,'11111222,11111222,99999999' 
WAVCIS,ioos:station:WAVCIS:CSI15:1,2009-02-04T00:00:00Z,28.8332,-90.8320,10.0,7.48,246.0,,'11111222,11111222,99999999' 
WAVCIS,ioos:station:WAVCIS:CSI15:1,2009-02-04T01:00:00Z,28.8332,-90.8320,10.0,7.36,259.0,,'11111222,11111222,99999999' 
WAVCIS,ioos:station:WAVCIS:CSI15:1,2009-02-04T02:00:00Z,28.8332,-90.8320,10.0,7.19,264.0,,'11111222,11111222,99999999' 
WAVCIS,ioos:station:WAVCIS:CSI15:1,2009-02-04T03:00:00Z,28.8332,-90.8320,10.0,7.03,256.0,,'11111222,11111222,99999999' 
WAVCIS,ioos:station:WAVCIS:CSI15:1,2009-02-04T04:00:00Z,28.8332,-90.8320,10.0,7.24,254.0,,'11111222,11111222,99999999' 
WAVCIS,ioos:station:WAVCIS:CSI15:1,2009-02-04T05:00:00Z,28.8332,-90.8320,10.0,6.809,258.0,,'11111222,11111222,99999999' 
WAVCIS,ioos:station:WAVCIS:CSI15:1,2009-02-04T06:00:00Z,28.8332,-90.8320,10.0,6.77,277.0,,'11111222,11111222,99999999' 
WAVCIS,ioos:station:WAVCIS:CSI15:1,2009-02-04T07:00:00Z,28.8332,-90.8320,10.0,7.91,296.0,,'11111222,11111222,99999999' 
WAVCIS,ioos:station:WAVCIS:CSI15:1,2009-02-04T08:00:00Z,28.8332,-90.8320,10.0,7.95,327.0,,'11111222,11111222,99999999' 
WAVCIS,ioos:station:WAVCIS:CSI15:1,2009-02-04T09:00:00Z,28.8332,-90.8320,10.0,8.38,357.0,,'11111222,11111222,99999999' 
WAVCIS,ioos:station:WAVCIS:CSI15:1,2009-02-04T10:00:00Z,28.8332,-90.8320,10.0,9.42,0.0,,'11111222,11111222,99999999' 
WAVCIS,ioos:station:WAVCIS:CSI15:1,2009-02-04T11:00:00Z,28.8332,-90.8320,10.0,10.41,7.0,,'11111222,11111222,99999999' 
WAVCIS,ioos:station:WAVCIS:CSI15:1,2009-02-04T12:00:00Z,28.8332,-90.8320,10.0,11.55,6.0,,'11111222,11111222,99999999' 
WAVCIS,ioos:station:WAVCIS:CSI15:1,2009-02-04T13:00:00Z,28.8332,-90.8320,10.0,10.88,10.0,,'11111222,11111222,99999999' 
WAVCIS,ioos:station:WAVCIS:CSI15:1,2009-02-04T14:00:00Z,28.8332,-90.8320,10.0,10.57,9.0,,'11111222,11111222,99999999' 
WAVCIS,ioos:station:WAVCIS:CSI15:1,2009-02-04T15:00:00Z,28.8332,-90.8320,10.0,10.24,10.0,,'11111222,11111222,99999999' 
WAVCIS,ioos:station:WAVCIS:CSI15:1,2009-02-04T16:00:00Z,28.8332,-90.8320,10.0,10.45,19.0,,'11111222,11111222,99999999' 
WAVCIS,ioos:station:WAVCIS:CSI15:1,2009-02-04T17:00:00Z,28.8332,-90.8320,10.0,10.17,20.0,,'11111222,11111222,99999999' 
WAVCIS,ioos:station:WAVCIS:CSI15:1,2009-02-04T18:00:00Z,28.8332,-90.8320,10.0,9.69,21.0,,'11111222,11111222,99999999' 
WAVCIS,ioos:station:WAVCIS:CSI15:1,2009-02-04T19:00:00Z,28.8332,-90.8320,10.0,7.94,17.0,,'11111222,11111222,99999999' 
WAVCIS,ioos:station:WAVCIS:CSI15:1,2009-02-04T20:00:00Z,28.8332,-90.8320,10.0,6.301,15.0,,'11111222,11111222,99999999' 
WAVCIS,ioos:station:WAVCIS:CSI15:1,2009-02-04T21:00:00Z,28.8332,-90.8320,10.0,5.585,6.0,,'11111222,11111222,99999999' 
WAVCIS,ioos:station:WAVCIS:CSI15:1,2009-02-04T22:00:00Z,28.8332,-90.8320,10.0,4.721,8.0,,'11111222,11111222,99999999' 
WAVCIS,ioos:station:WAVCIS:CSI15:1,2009-02-04T23:00:00Z,28.8332,-90.8320,10.0,5.343,12.0,,'11111222,11111222,99999999' 
WAVCIS,ioos:station:WAVCIS:CSI15:1,2009-02-05T00:00:00Z,28.8332,-90.8320,10.0,4.118,23.0,,'11111222,11111222,99999999' 
WAVCIS,ioos:station:WAVCIS:CSI15:1,2009-02-05T01:00:00Z,28.8332,-90.8320,10.0,4.819,10.0,,'11111222,11111222,99999999' 
WAVCIS,ioos:station:WAVCIS:CSI15:1,2009-02-05T02:00:00Z,28.8332,-90.8320,10.0,5.876,8.0,,'11111222,11111222,99999999' 
WAVCIS,ioos:station:WAVCIS:CSI15:1,2009-02-05T03:00:00Z,28.8332,-90.8320,10.0,5.506,3.0,,'11111222,11111222,99999999' 
WAVCIS,ioos:station:WAVCIS:CSI15:1,2009-02-05T04:00:00Z,28.8332,-90.8320,10.0,4.906,13.0,,'11111222,11111222,99999999' 
WAVCIS,ioos:station:WAVCIS:CSI15:1,2009-02-05T05:00:00Z,28.8332,-90.8320,10.0,5.231,11.0,,'11111222,11111222,99999999' 
WAVCIS,ioos:station:WAVCIS:CSI15:1,2009-02-05T06:00:00Z,28.8332,-90.8320,10.0,4.556,23.0,,'11111222,11111222,99999999' 
WAVCIS,ioos:station:WAVCIS:CSI15:1,2009-02-05T07:00:00Z,28.8332,-90.8320,10.0,5.08,28.0,,'11111222,11111222,99999999' 
WAVCIS,ioos:station:WAVCIS:CSI15:1,2009-02-05T08:00:00Z,28.8332,-90.8320,10.0,4.425,38.0,,'11111222,11111222,99999999' 
WAVCIS,ioos:station:WAVCIS:CSI15:1,2009-02-05T09:00:00Z,28.8332,-90.8320,10.0,4.192,41.0,,'11111222,11111222,99999999' 
WAVCIS,ioos:station:WAVCIS:CSI15:1,2009-02-05T10:00:00Z,28.8332,-90.8320,10.0,5.178,42.0,,'11111222,11111222,99999999' 
WAVCIS,ioos:station:WAVCIS:CSI15:1,2009-02-05T11:00:00Z,28.8332,-90.8320,10.0,5.325,46.0,,'11111222,11111222,99999999' 
WAVCIS,ioos:station:WAVCIS:CSI15:1,2009-02-05T12:00:00Z,28.8332,-90.8320,10.0,5.714,50.0,,'11111222,11111222,99999999' 
WAVCIS,ioos:station:WAVCIS:CSI15:1,2009-02-05T13:00:00Z,28.8332,-90.8320,10.0,5.517,61.0,,'11111222,11111222,99999999' 
WAVCIS,ioos:station:WAVCIS:CSI15:1,2009-02-05T14:00:00Z,28.8332,-90.8320,10.0,5.147,70.0,,'11111222,11111222,99999999' 
WAVCIS,ioos:station:WAVCIS:CSI15:1,2009-02-05T15:00:00Z,28.8332,-90.8320,10.0,5.216,84.0,,'11111222,11111222,99999999' 
WAVCIS,ioos:station:WAVCIS:CSI15:1,2009-02-05T16:00:00Z,28.8332,-90.8320,10.0,5.157,84.0,,'11111222,11111222,99999999' 
WAVCIS,ioos:station:WAVCIS:CSI15:1,2009-02-05T17:00:00Z,28.8332,-90.8320,10.0,5.279,65.0,,'11111222,11111222,99999999' 
WAVCIS,ioos:station:WAVCIS:CSI15:1,2009-02-05T18:00:00Z,28.8332,-90.8320,10.0,5.994,54.0,,'11111222,11111222,99999999' 
WAVCIS,ioos:station:WAVCIS:CSI15:1,2009-02-05T19:00:00Z,28.8332,-90.8320,10.0,5.932,60.0,,'11111222,11111222,99999999' 
WAVCIS,ioos:station:WAVCIS:CSI15:1,2009-02-05T20:00:00Z,28.8332,-90.8320,10.0,5.4,66.0,,'11111222,11111222,99999999' 
WAVCIS,ioos:station:WAVCIS:CSI15:1,2009-02-05T21:00:00Z,28.8332,-90.8320,10.0,5.35,79.0,,'11111222,11111222,99999999' 
WAVCIS,ioos:station:WAVCIS:CSI15:1,2009-02-05T22:00:00Z,28.8332,-90.8320,10.0,5.767,77.0,,'11111222,11111222,99999999' 
WAVCIS,ioos:station:WAVCIS:CSI15:1,2009-02-05T23:00:00Z,28.8332,-90.8320,10.0,5.31,75.0,,'11111222,11111222,99999999' 
WAVCIS,ioos:station:WAVCIS:CSI15:1,2009-02-06T00:00:00Z,28.8332,-90.8320,10.0,4.945,83.0,,'11111222,11111222,99999999' 
WAVCIS,ioos:station:WAVCIS:CSI15:1,2009-02-06T01:00:00Z,28.8332,-90.8320,10.0,4.925,105.0,,'11111222,11111222,99999999' 
WAVCIS,ioos:station:WAVCIS:CSI15:1,2009-02-06T02:00:00Z,28.8332,-90.8320,10.0,4.875,108.0,,'11111222,11111222,99999999' 
WAVCIS,ioos:station:WAVCIS:CSI15:1,2009-02-06T03:00:00Z,28.8332,-90.8320,10.0,5.007,107.0,,'11111222,11111222,99999999' 
WAVCIS,ioos:station:WAVCIS:CSI15:1,2009-02-06T04:00:00Z,28.8332,-90.8320,10.0,6.054,112.0,,'11111222,11111222,99999999' 
WAVCIS,ioos:station:WAVCIS:CSI15:1,2009-02-06T05:00:00Z,28.8332,-90.8320,10.0,7.15,113.0,,'11111222,11111222,99999999' 
WAVCIS,ioos:station:WAVCIS:CSI15:1,2009-02-06T06:00:00Z,28.8332,-90.8320,10.0,7.14,117.0,,'11111222,11111222,99999999' 
WAVCIS,ioos:station:WAVCIS:CSI15:1,2009-02-06T07:00:00Z,28.8332,-90.8320,10.0,6.9,117.0,,'11111222,11111222,99999999' 
WAVCIS,ioos:station:WAVCIS:CSI15:1,2009-02-06T08:00:00Z,28.8332,-90.8320,10.0,5.776,111.0,,'11111222,11111222,99999999' 
WAVCIS,ioos:station:WAVCIS:CSI15:1,2009-02-06T09:00:00Z,28.8332,-90.8320,10.0,6.28,113.0,,'11111222,11111222,99999999' 
WAVCIS,ioos:station:WAVCIS:CSI15:1,2009-02-06T10:00:00Z,28.8332,-90.8320,10.0,6.002,113.0,,'11111222,11111222,99999999' 
WAVCIS,ioos:station:WAVCIS:CSI15:1,2009-02-06T11:00:00Z,28.8332,-90.8320,10.0,6.737,115.0,,'11111222,11111222,99999999' 
WAVCIS,ioos:station:WAVCIS:CSI15:1,2009-02-06T12:00:00Z,28.8332,-90.8320,10.0,6.084,117.0,,'11111222,11111222,99999999' 
WAVCIS,ioos:station:WAVCIS:CSI15:1,2009-02-06T13:00:00Z,28.8332,-90.8320,10.0,5.539,127.0,,'11111222,11111222,99999999' 
WAVCIS,ioos:station:WAVCIS:CSI15:1,2009-02-06T14:00:00Z,28.8332,-90.8320,10.0,6.063,124.0,,'11111222,11111222,99999999' 
WAVCIS,ioos:station:WAVCIS:CSI15:1,2009-02-06T15:00:00Z,28.8332,-90.8320,10.0,5.982,120.0,,'11111222,11111222,99999999' 
WAVCIS,ioos:station:WAVCIS:CSI15:1,2009-02-06T16:00:00Z,28.8332,-90.8320,10.0,6.342,113.0,,'11111222,11111222,99999999' 
WAVCIS,ioos:station:WAVCIS:CSI15:1,2009-02-06T17:00:00Z,28.8332,-90.8320,10.0,6.449,111.0,,'11111222,11111222,99999999' 
WAVCIS,ioos:station:WAVCIS:CSI15:1,2009-02-06T18:00:00Z,28.8332,-90.8320,10.0,5.356,107.0,,'11111222,11111222,99999999' 
WAVCIS,ioos:station:WAVCIS:CSI15:1,2009-02-06T19:00:00Z,28.8332,-90.8320,10.0,4.795,107.0,,'11111222,11111222,99999999' 
WAVCIS,ioos:station:WAVCIS:CSI15:1,2009-02-06T20:00:00Z,28.8332,-90.8320,10.0,4.968,103.0,,'11111222,11111222,99999999' 
WAVCIS,ioos:station:WAVCIS:CSI15:1,2009-02-06T21:00:00Z,28.8332,-90.8320,10.0,4.905,106.0,,'11111222,11111222,99999999' 
WAVCIS,ioos:station:WAVCIS:CSI15:1,2009-02-06T22:00:00Z,28.8332,-90.8320,10.0,5.283,97.0,,'11111222,11111222,99999999' 
WAVCIS,ioos:station:WAVCIS:CSI15:1,2009-02-06T23:00:00Z,28.8332,-90.8320,10.0,6.054,95.0,,'11111222,11111222,99999999' 
WAVCIS,ioos:station:WAVCIS:CSI15:1,2009-02-07T00:00:00Z,28.8332,-90.8320,10.0,6.253,95.0,,'11111222,11111222,99999999' 
WAVCIS,ioos:station:WAVCIS:CSI15:1,2009-02-07T01:00:00Z,28.8332,-90.8320,10.0,5.889,90.0,,'11111222,11111222,99999999' 
WAVCIS,ioos:station:WAVCIS:CSI15:1,2009-02-07T02:00:00Z,28.8332,-90.8320,10.0,6.0,89.0,,'11111222,11111222,99999999' 
WAVCIS,ioos:station:WAVCIS:CSI15:1,2009-02-07T03:00:00Z,28.8332,-90.8320,10.0,5.643,105.0,,'11111222,11111222,99999999' 
WAVCIS,ioos:station:WAVCIS:CSI15:1,2009-02-07T04:00:00Z,28.8332,-90.8320,10.0,6.42,111.0,,'11111222,11111222,99999999' 
WAVCIS,ioos:station:WAVCIS:CSI15:1,2009-02-07T05:00:00Z,28.8332,-90.8320,10.0,6.235,128.0,,'11111222,11111222,99999999' 
WAVCIS,ioos:station:WAVCIS:CSI15:1,2009-02-07T06:00:00Z,28.8332,-90.8320,10.0,7.48,121.0,,'11111222,11111222,99999999' 
WAVCIS,ioos:station:WAVCIS:CSI15:1,2009-02-07T07:00:00Z,28.8332,-90.8320,10.0,6.674,134.0,,'11111222,11111222,99999999' 
WAVCIS,ioos:station:WAVCIS:CSI15:1,2009-02-07T08:00:00Z,28.8332,-90.8320,10.0,6.569,134.0,,'11111222,11111222,99999999' 
WAVCIS,ioos:station:WAVCIS:CSI15:1,2009-02-07T09:00:00Z,28.8332,-90.8320,10.0,6.426,137.0,,'11111222,11111222,99999999' 
WAVCIS,ioos:station:WAVCIS:CSI15:1,2009-02-07T10:00:00Z,28.8332,-90.8320,10.0,5.427,130.0,,'11111222,11111222,99999999' 
WAVCIS,ioos:station:WAVCIS:CSI15:1,2009-02-07T11:00:00Z,28.8332,-90.8320,10.0,7.66,152.0,,'11111222,11111222,99999999' 
WAVCIS,ioos:station:WAVCIS:CSI15:1,2009-02-07T12:00:00Z,28.8332,-90.8320,10.0,4.348,135.0,,'11111222,11111222,99999999' 
WAVCIS,ioos:station:WAVCIS:CSI15:1,2009-02-07T13:00:00Z,28.8332,-90.8320,10.0,3.333,120.0,,'11111222,11111222,99999999' 
WAVCIS,ioos:station:WAVCIS:CSI15:1,2009-02-07T14:00:00Z,28.8332,-90.8320,10.0,3.879,121.0,,'11111222,11111222,99999999' 
WAVCIS,ioos:station:WAVCIS:CSI15:1,2009-02-07T15:00:00Z,28.8332,-90.8320,10.0,3.699,103.0,,'11111222,11111222,99999999' 
WAVCIS,ioos:station:WAVCIS:CSI15:1,2009-02-07T16:00:00Z,28.8332,-90.8320,10.0,3.571,119.0,,'11111222,11111222,99999999' 
WAVCIS,ioos:station:WAVCIS:CSI15:1,2009-02-07T17:00:00Z,28.8332,-90.8320,10.0,1.618,87.0,,'11111222,11111222,99999999' 
WAVCIS,ioos:station:WAVCIS:CSI15:1,2009-02-07T18:00:00Z,28.8332,-90.8320,10.0,4.207,45.0,,'11111222,11111222,99999999' 
WAVCIS,ioos:station:WAVCIS:CSI15:1,2009-02-07T19:00:00Z,28.8332,-90.8320,10.0,4.854,58.0,,'11111222,11111222,99999999' 
WAVCIS,ioos:station:WAVCIS:CSI15:1,2009-02-07T20:00:00Z,28.8332,-90.8320,10.0,5.861,65.0,,'11111222,11111222,99999999' 
WAVCIS,ioos:station:WAVCIS:CSI15:1,2009-02-07T21:00:00Z,28.8332,-90.8320,10.0,4.83,64.0,,'11111222,11111222,99999999' 
WAVCIS,ioos:station:WAVCIS:CSI15:1,2009-02-07T22:00:00Z,28.8332,-90.8320,10.0,3.891,75.0,,'11111222,11111222,99999999' 
WAVCIS,ioos:station:WAVCIS:CSI15:1,2009-02-07T23:00:00Z,28.8332,-90.8320,10.0,2.044,91.0,,'11111222,11111222,99999999' 
WAVCIS,ioos:station:WAVCIS:CSI15:1,2009-02-08T00:00:00Z,28.8332,-90.8320,10.0,1.519,37.0,,'11111222,11111222,99999999' 
WAVCIS,ioos:station:WAVCIS:CSI15:1,2009-02-08T01:00:00Z,28.8332,-90.8320,10.0,2.282,24.0,,'11111222,11111222,99999999' 
WAVCIS,ioos:station:WAVCIS:CSI15:1,2009-02-08T02:00:00Z,28.8332,-90.8320,10.0,4.179,70.0,,'11111222,11111222,99999999' 
WAVCIS,ioos:station:WAVCIS:CSI15:1,2009-02-08T03:00:00Z,28.8332,-90.8320,10.0,5.016,101.0,,'11111222,11111222,99999999' 
WAVCIS,ioos:station:WAVCIS:CSI15:1,2009-02-08T04:00:00Z,28.8332,-90.8320,10.0,8.75,112.0,,'11111222,11111222,99999999' 
WAVCIS,ioos:station:WAVCIS:CSI15:1,2009-02-08T05:00:00Z,28.8332,-90.8320,10.0,9.53,109.0,,'11111222,11111222,99999999' 
WAVCIS,ioos:station:WAVCIS:CSI15:1,2009-02-08T06:00:00Z,28.8332,-90.8320,10.0,7.95,105.0,,'11111222,11111222,99999999' 
WAVCIS,ioos:station:WAVCIS:CSI15:1,2009-02-08T07:00:00Z,28.8332,-90.8320,10.0,7.79,102.0,,'11111222,11111222,99999999' 
WAVCIS,ioos:station:WAVCIS:CSI15:1,2009-02-08T08:00:00Z,28.8332,-90.8320,10.0,7.09,100.0,,'11111222,11111222,99999999' 
WAVCIS,ioos:station:WAVCIS:CSI15:1,2009-02-08T09:00:00Z,28.8332,-90.8320,10.0,6.615,100.0,,'11111222,11111222,99999999' 
WAVCIS,ioos:station:WAVCIS:CSI15:1,2009-02-08T10:00:00Z,28.8332,-90.8320,10.0,8.5,100.0,,'11111222,11111222,99999999' 
WAVCIS,ioos:station:WAVCIS:CSI15:1,2009-02-08T11:00:00Z,28.8332,-90.8320,10.0,7.46,90.0,,'11111222,11111222,99999999' 
WAVCIS,ioos:station:WAVCIS:CSI15:1,2009-02-08T12:00:00Z,28.8332,-90.8320,10.0,9.69,77.0,,'11111222,11111222,99999999' 
WAVCIS,ioos:station:WAVCIS:CSI15:1,2009-02-08T13:00:00Z,28.8332,-90.8320,10.0,8.44,63.0,,'11111222,11111222,99999999' 
WAVCIS,ioos:station:WAVCIS:CSI15:1,2009-02-08T14:00:00Z,28.8332,-90.8320,10.0,7.83,78.0,,'11111222,11111222,99999999' 
WAVCIS,ioos:station:WAVCIS:CSI15:1,2009-02-08T15:00:00Z,28.8332,-90.8320,10.0,6.747,75.0,,'11111222,11111222,99999999' 
WAVCIS,ioos:station:WAVCIS:CSI15:1,2009-02-08T16:00:00Z,28.8332,-90.8320,10.0,9.57,78.0,,'11111222,11111222,99999999' 
WAVCIS,ioos:station:WAVCIS:CSI15:1,2009-02-08T17:00:00Z,28.8332,-90.8320,10.0,9.02,69.0,,'11111222,11111222,99999999' 
WAVCIS,ioos:station:WAVCIS:CSI15:1,2009-02-08T18:00:00Z,28.8332,-90.8320,10.0,9.16,78.0,,'11111222,11111222,99999999' 
WAVCIS,ioos:station:WAVCIS:CSI15:1,2009-02-08T19:00:00Z,28.8332,-90.8320,10.0,8.83,82.0,,'11111222,11111222,99999999' 
WAVCIS,ioos:station:WAVCIS:CSI15:1,2009-02-08T20:00:00Z,28.8332,-90.8320,10.0,8.07,84.0,,'11111222,11111222,99999999' 
WAVCIS,ioos:station:WAVCIS:CSI15:1,2009-02-08T21:00:00Z,28.8332,-90.8320,10.0,9.65,87.0,,'11111222,11111222,99999999' 
WAVCIS,ioos:station:WAVCIS:CSI15:1,2009-02-08T22:00:00Z,28.8332,-90.8320,10.0,10.35,85.0,,'11111222,11111222,99999999' 
WAVCIS,ioos:station:WAVCIS:CSI15:1,2009-02-08T23:00:00Z,28.8332,-90.8320,10.0,7.94,78.0,,'11111222,11111222,99999999' 
WAVCIS,ioos:station:WAVCIS:CSI15:1,2009-02-09T00:00:00Z,28.8332,-90.8320,10.0,7.89,81.0,,'11111222,11111222,99999999' 
WAVCIS,ioos:station:WAVCIS:CSI15:1,2009-02-09T01:00:00Z,28.8332,-90.8320,10.0,8.22,80.0,,'11111222,11111222,99999999' 
WAVCIS,ioos:station:WAVCIS:CSI15:1,2009-02-09T02:00:00Z,28.8332,-90.8320,10.0,9.58,80.0,,'11111222,11111222,99999999' 
WAVCIS,ioos:station:WAVCIS:CSI15:1,2009-02-09T03:00:00Z,28.8332,-90.8320,10.0,10.07,81.0,,'11111222,11111222,99999999' 
WAVCIS,ioos:station:WAVCIS:CSI15:1,2009-02-09T04:00:00Z,28.8332,-90.8320,10.0,9.74,86.0,,'11111222,11111222,99999999' 
WAVCIS,ioos:station:WAVCIS:CSI15:1,2009-02-09T05:00:00Z,28.8332,-90.8320,10.0,10.04,95.0,,'11111222,11111222,99999999' 